Regional Weather Roundup
Issued by NWS

Home | Current Version | Previous Version | Text Only | Print | Product List | Glossary On
Versions: 1 2 3 4 5 6 7 8 9 10 11 12 13 14 15 16 17 18 19 20 21 22 23 24 25 26 27 28 29 30 31 32 33 34 35 36 37 38 39 40 41 42 43 44 45 46 47 48 49 50
000
ASUS44 KOUN 211900
RWROK

WEATHER ROUNDUP FOR OKLAHOMA
NATIONAL WEATHER SERVICE NORMAN OK
100 PM CST SUN DEC 21 2014

NOTE: "FAIR" INDICATES FEW OR NO CLOUDS BELOW 12,000 FEET WITH NO
      SIGNIFICANT WEATHER AND/OR OBSTRUCTIONS TO VISIBILITY.

OKZ001>007-009>012-014-015-017-212000-
NORTHWEST OKLAHOMA AND THE PANHANDLE

CITY           SKY/WX    TMP DP  RH WIND       PRES   REMARKS
GAGE           CLOUDY    45  39  79 S14       29.75F
$$

OKZ016-021>023-033>039-044-045-212000-
SOUTHWEST OKLAHOMA

CITY           SKY/WX    TMP DP  RH WIND       PRES   REMARKS
LAWTON/REGL    CLOUDY    50  44  80 S22G30    29.85F
LAWTON/FT SILL CLOUDY    50  44  80 S20G29    29.83F
FREDERICK      CLOUDY    51  45  79 S24       29.80F
CLINTON        CLOUDY    47  43  86 S13       29.80F
HOBART         CLOUDY    49  44  83 S20       29.81F
ALTUS AFB      CLOUDY    53  46  78 S18       29.81F
$$

OKZ018>020-024>031-212000-
CENTRAL OKLAHOMA

CITY           SKY/WX    TMP DP  RH WIND       PRES   REMARKS
OKLAHOMA CITY  CLOUDY    48  42  80 S17       29.86F
OKC/WILEY POST CLOUDY    47  43  86 S18G26    29.86F FOG
OKC/TINKER AFB CLOUDY    46  42  86 S18       29.87F
STILLWATER     LGT RAIN  48  42  80 S18G29    29.87F
GUTHRIE        CLOUDY    47  42  83 S20G26    29.87F HAZE
$$

OKZ008-013-054>072-212000-
NORTHEAST OKLAHOMA

CITY           SKY/WX    TMP DP  RH WIND       PRES   REMARKS
TULSA          CLOUDY    48  42  80 S20G28    29.93F
TULSA/JONES    CLOUDY    47  42  83 S9        29.93F
PONCA CITY     CLOUDY    48  41  76 S13       29.86F
BARTLESVILLE   CLOUDY    47  41  80 S13G18    29.92F
MUSKOGEE       CLOUDY    47  41  80 SE14      29.97F
$$

OKZ032-040>043-046>053-073>077-212000-
SOUTH CENTRAL/SOUTHEAST OKLAHOMA

CITY           SKY/WX    TMP DP  RH WIND       PRES   REMARKS
MCALESTER      CLOUDY    49  40  71 S9G21     29.96F
$$




USA.gov is the U.S. government's official web portal to all federal, state and local government web resources and services.